XW-2D (40907 NORAD) Tracking and Keplerian Element Data

This shows tracking and keplerian element data for the satellite.

Feedback or suggestion? Click here.




ElementValue
Catalog40907
NameXW-2D
Epoch Orbit19858
Epoch Day114.05295503
Epoch Year2019
RAAN116.7373
Inclination97.4651
Eccentricity0.0015541
Argument of Perigee35.7732
Mean Anonmoly1.5864
Mean Motion15.15781983
Decay Rate8.53E-06
L11 40907U 15049J 19114.05295503 .00000853 00000-0 48077-4 0 9990
L22 40907 97.4651 116.7373 0015541 35.7732 1.5864 15.15781983198588

Live tracking and technical data element details for XW-2D (NORAD 40907). XW-2D can be tracked NOW for your location showing map with azimuth and elevation plus other details from your city location.

Track the satellite on the map from your city or location and see movement details for azimuth, elevation, latitude, longitude, range, height, and movement on the map or in text.







IsCatalogInMostPopularTable: catalog: 40907, numindb: 207
Update: records affected: 1



GetName: 40907 XW-2D

Hit Count: updated at: Wed, 24 Apr 2019 18:29:45 GMT